Location: Haliburton Scout Reserve
(45.0900°N, 78.3200°W)
Time: 06:53:01
(UTC-04:00)

AAUSAT CUBESAT 2 - Visible Passes

Search period start: 20 April 2024 00:00
Search period end: 30 April 2024 00:00
Orbit: 518 x 528 km, 97.6° (Epoch: 20 April)

Date Brightness Start Highest point End Pass type
(mag) Time Alt. Az. Time Alt. Az. Time Alt. Az.
20 Apr ? 05:07:44 10° NE 05:11:02 27° E 05:14:19 10° SSE visible
21 Apr ? 04:55:27 10° NE 04:58:19 20° E 05:01:10 10° SE visible
22 Apr ? 04:43:20 10° ENE 04:45:30 14° E 04:47:39 10° SE visible
23 Apr ? 04:32:00 10° E 04:32:34 10° E 04:33:09 10° E visible
26 Apr ? 05:24:34 10° NNE 05:28:13 42° E 05:31:51 10° S visible
27 Apr ? 05:11:39 10° NE 05:15:02 30° E 05:18:24 10° SSE visible
28 Apr ? 04:58:45 10° NE 05:01:44 21° E 05:04:42 10° SE visible
29 Apr ? 04:46:00 10° NE 04:48:19 15° E 04:50:38 10° SE visible
